Zurück zum Katalog

PSLV-C51 PS4

AktivSSO
NORAD 47700·ROCKET BODY·🇮🇳 India
Dieser Satellitenname wurde noch nicht durch offizielle Quellen bestätigt.

Gestartet Feb 28, 2021 von Satish Dhawan Space Centre

Loading…

Nächste Überflüge (nächste 24 Stunden)

TLE

AktuellSource: Space-Track

Epoche: Sep 14, 2026, 16:19 UTC

1 47700U 21015B   26257.68031188  .00009770  00000-0  20387-3 0  9990
2 47700  97.1135 290.7615 0019581 306.4064  53.5380 15.45530717308231

Verfolge PSLV-C51 PS4 in Echtzeit mit AllMySat

Download on the App Store